Vorticity
4 6 15 4 10 9 14 8 6 2 4 9 8 14 19 17 17 16 15 10 3 21 10 13 17 13 7 35 13 11 21 5 8 4 3 12 10 11 8 7 7 7 9 12 -1 7 32
13 5 16 -0 10 7 13 11 8 2 2 6 3 2 13 17 10 9 20 16 22 9 12 13 10 13 11 19 4 6 33 19 18 9 10 14 10 -1 16 12 4 10 -4 26 -0 6 11
10 2 14 7 15 8 9 12 6 13 3 5 4 -2 0 25 15 9 18 14 20 5 9 13 15 63 22 29 11 12 24 16 -10 12 14 7 14 -1 24 17 17 4 -10 10 16 1 15
6 5 6 10 8 13 9 13 9 7 6 5 4 7 -7 21 19 13 9 15 11 6 10 9 9 2 12 8 -0 13 41 9 6 1 6 13 16 0 26 4 15 12 28 5 4 25 11
5 7 11 13 4 8 10 12 11 7 8 4 10 6 -13 19 16 19 13 10 13 7 1 4 1 6 7 11 12 13 22 12 17 -9 14 6 16 -6 15 6 -2 2 39 -6 4 13 -2
7 6 7 9 4 10 10 8 13 7 9 5 7 9 6 3 7 16 18 17 10 12 17 7 4 10 13 7 12 11 16 36 8 0 0 10 14 -4 11 5 10 2 7 12 -5 10 3
8 4 7 11 8 4 8 10 13 10 4 7 6 10 16 8 6 6 11 14 15 12 10 11 17 14 12 7 7 13 17 28 25 -2 3 57 11 -4 5 -4 23 8 -5 11 0 16 19
9 8 9 11 5 6 5 11 7 13 6 5 5 9 9 14 6 8 6 9 10 12 11 13 10 2 17 15 12 14 13 18 13 -1 -31 45 16 7 6 -8 -6 19 3 20 10 -13 18
9 9 8 6 4 12 11 9 10 10 10 4 4 9 9 15 12 6 10 14 3 13 12 12 14 9 13 14 16 10 16 18 -2 22 9 -1 30 11 7 2 3 19 6 3 7 20 7
8 15 8 4 5 11 7 7 11 12 15 7 4 6 8 14 18 12 8 17 6 11 4 5 8 17 13 9 12 12 11 -3 20 27 5 1 18 11 2 -2 -23 -0 12 12 17 1 -10
9 9 5 5 6 12 9 9 8 14 11 13 3 3 9 13 10 12 14 16 11 14 6 6 19 22 1 -14 28 10 17 -5 11 16 -10 0 31 21 -8 14 6 21 -11 -6 36 17 3
8 7 6 7 6 7 9 9 8 18 15 16 8 2 8 14 11 8 16 5 7 9 -11 27 23 27 -4 9 15 12 17 1 9 6 -14 26 16 7 17 14 6 5 7 32 16 6 8
7 6 5 8 6 7 7 9 10 19 16 11 11 2 7 14 9 11 14 16 -2 17 3 -2 14 34 -1 12 9 10 13 -5 1 -1 23 19 7 -7 12 9 5 16 8 1 3 11 8
7 5 6 9 9 6 10 13 9 10 20 13 11 8 7 15 6 2 11 7 15 5 25 9 14 18 10 28 34 2 20 10 -2 -3 -1 -12 19 13 22 6 20 9 -17 -14 8 8 3
7 7 7 9 10 10 9 15 9 11 23 15 12 11 6 15 8 3 14 11 16 -2 4 7 2 8 17 17 27 -1 -5 4 16 20 -19 4 17 -1 32 9 8 19 -4 1 2 8 4
7 7 9 10 10 9 11 14 9 14 25 16 12 12 8 13 15 8 19 22 16 12 8 13 11 14 8 9 12 15 6 22 -0 -8 -26 24 7 16 2 10 7 13 -4 6 6 6 8
7 9 13 12 12 10 14 18 13 15 25 16 15 14 8 10 15 14 7 20 9 8 -3 3 14 8 7 3 13 5 25 33 5 6 5 26 -3 44 2 15 7 5 10 -15 -6 -8 7
9 11 12 15 11 11 9 14 14 18 21 18 14 17 11 7 15 22 15 3 9 11 15 6 11 6 0 7 0 3 7 18 34 12 -9 3 7 13 13 8 5 9 11 3 -33 24 -3
9 8 13 12 8 11 10 12 10 15 23 18 12 13 7 2 4 21 0 -1 2 4 7 11 13 9 8 4 0 9 6 8 36 17 10 14 27 -1 34 21 31 7 7 0 -2 4 12
7 11 13 13 12 12 10 9 10 13 18 20 14 12 11 7 3 8 11 2 4 7 13 9 12 20 2 3 9 13 16 7 -0 4 6 2 30 -2 -9 18 23 9 19 13 8 1 -11
8 8 13 15 11 11 11 10 9 12 20 21 16 16 9 21 5 9 2 6 11 7 10 12 14 16 5 5 13 19 11 26 2 2 7 -4 14 -1 12 8 18 15 40 9 3 -12 -5
3 10 11 11 10 10 10 9 9 9 15 18 18 12 15 22 9 3 7 10 5 4 9 15 4 12 3 10 9 7 10 14 -6 5 8 5 3 18 8 1 4 7 15 21 38 2 2
7 10 11 10 9 8 9 10 10 11 13 18 20 15 10 15 10 6 7 12 3 8 16 5 8 15 5 3 6 7 5 15 9 8 18 1 17 13 18 18 12 33 22 1 14 14 17
10 10 9 9 9 7 8 9 9 12 15 14 15 12 14 10 10 10 4 4 -0 14 7 16 5 9 17 8 7 6 7 6 6 7 15 4 12 7 14 11 13 15 10 26 45 5 8
5 7 8 7 7 9 7 9 12 13 12 18 16 12 23 9 11 6 10 5 13 10 8 9 8 12 12 12 13 15 14 17 18 17 13 12 14 6 -0 15 -17 12 17 14 9 16 25
9 9 10 7 6 7 6 5 9 13 12 16 15 18 11 21 19 17 11 11 11 10 4 12 8 2 5 5 9 10 9 7 13 10 20 6 7 -2 20 7 3 11 2 3 16 25 27
7 9 12 11 9 6 5 5 6 13 15 17 16 15 16 13 18 17 3 12 13 10 4 3 18 9 4 7 7 6 11 6 7 8 19 16 8 3 -1 -7 13 15 1 8 13 -7 7
5 8 11 11 10 8 6 6 6 10 17 13 13 17 27 17 11 10 25 -2 9 13 12 2 13 11 5 9 10 11 10 4 12 1 -1 11 12 18 43 1 20 19 17 5 5 14 11
4 6 8 8 8 10 11 9 8 11 19 8 12 12 10 30 15 11 6 16 20 3 6 15 -0 16 13 9 8 10 8 -2 5 1 24 13 5 2 -10 13 -1 6 -3 12 19 6 11
Height
3122 3117 3113 3106 3099 3093 3087 3082 3078 3072 3065 3058 3050 3042 3033 3026 3021 3016 3013 3012 3011 3011 3012 3013 3014 3014 3016 3020 3027 3025 3030 3041 3051 3059 3065 3070 3076 3081 3088 3094 3100 3104 3109 3115 3119 3124 3127
3121 3115 3110 3103 3098 3092 3086 3080 3076 3070 3065 3057 3049 3042 3033 3026 3021 3018 3013 3011 3010 3010 3011 3012 3012 3013 3016 3019 3021 3024 3028 3038 3047 3054 3061 3067 3073 3081 3088 3092 3098 3102 3110 3112 3116 3123 3126
3119 3113 3107 3101 3095 3091 3084 3079 3073 3068 3063 3056 3050 3042 3035 3027 3022 3019 3015 3012 3011 3011 3011 3012 3013 3011 3014 3017 3020 3024 3027 3035 3044 3049 3059 3066 3073 3079 3085 3090 3097 3103 3108 3111 3114 3120 3124
3117 3111 3106 3100 3094 3089 3083 3077 3073 3067 3062 3056 3050 3043 3037 3030 3023 3020 3017 3014 3013 3013 3013 3014 3015 3015 3015 3018 3019 3024 3026 3033 3040 3045 3056 3065 3071 3078 3084 3088 3096 3100 3105 3108 3111 3117 3122
3115 3109 3103 3098 3093 3087 3082 3076 3071 3066 3061 3055 3049 3044 3039 3033 3026 3021 3019 3017 3016 3015 3015 3017 3018 3017 3019 3021 3022 3023 3027 3033 3039 3048 3053 3063 3070 3076 3083 3087 3095 3097 3098 3101 3108 3113 3117
3113 3108 3102 3096 3091 3086 3082 3075 3070 3065 3060 3054 3049 3045 3039 3035 3029 3023 3020 3018 3017 3017 3017 3017 3018 3021 3020 3021 3023 3025 3026 3033 3040 3048 3052 3060 3067 3073 3078 3081 3083 3085 3093 3099 3104 3107 3112
3111 3106 3100 3095 3090 3084 3080 3073 3067 3063 3059 3053 3047 3044 3039 3035 3031 3027 3022 3020 3021 3020 3018 3018 3018 3019 3020 3021 3024 3027 3030 3034 3039 3045 3049 3055 3062 3060 3070 3078 3083 3088 3093 3098 3102 3106 3110
3110 3104 3099 3094 3088 3082 3076 3072 3065 3061 3058 3051 3046 3043 3040 3034 3031 3028 3027 3023 3021 3021 3019 3018 3018 3019 3020 3021 3024 3027 3030 3035 3037 3041 3045 3052 3057 3068 3074 3080 3085 3090 3094 3098 3103 3107 3109
3108 3102 3097 3092 3086 3080 3074 3068 3064 3059 3054 3050 3044 3042 3038 3034 3030 3027 3026 3024 3022 3020 3020 3020 3019 3019 3020 3023 3024 3027 3032 3033 3039 3044 3048 3052 3061 3067 3073 3079 3085 3089 3091 3097 3101 3103 3106
3106 3100 3095 3089 3085 3078 3072 3066 3061 3057 3053 3049 3044 3041 3037 3034 3031 3026 3025 3025 3023 3021 3020 3023 3021 3022 3023 3023 3026 3028 3029 3035 3042 3046 3049 3054 3059 3067 3072 3078 3083 3086 3092 3096 3098 3101 3103
3104 3098 3093 3086 3082 3077 3070 3064 3058 3055 3051 3048 3042 3039 3037 3032 3030 3027 3025 3023 3021 3021 3022 3024 3022 3021 3022 3026 3029 3030 3032 3037 3040 3047 3054 3056 3059 3065 3070 3075 3082 3088 3091 3093 3095 3098 3101
3102 3097 3091 3084 3079 3073 3068 3061 3056 3051 3046 3043 3041 3037 3036 3033 3030 3027 3024 3023 3022 3023 3022 3022 3020 3023 3024 3025 3028 3031 3035 3041 3043 3049 3054 3055 3058 3066 3071 3077 3082 3087 3089 3092 3096 3099 3100
3100 3095 3089 3082 3075 3070 3064 3059 3053 3047 3043 3041 3040 3036 3034 3032 3030 3027 3024 3024 3024 3025 3030 3028 3024 3022 3025 3027 3030 3033 3037 3042 3045 3049 3050 3057 3062 3066 3071 3076 3081 3084 3088 3093 3099 3100 3093
3097 3091 3085 3079 3072 3066 3061 3057 3050 3044 3041 3038 3036 3034 3032 3031 3029 3028 3026 3025 3023 3029 3028 3028 3026 3025 3026 3030 3033 3036 3039 3044 3047 3049 3050 3057 3065 3065 3069 3074 3075 3081 3084 3084 3092 3093 3088
3093 3088 3082 3077 3069 3062 3057 3053 3046 3041 3038 3036 3034 3033 3031 3029 3029 3028 3028 3026 3026 3029 3030 3029 3029 3029 3028 3031 3034 3038 3039 3042 3045 3047 3050 3054 3058 3061 3066 3070 3076 3078 3080 3083 3083 3086 3087
3090 3085 3079 3073 3065 3059 3054 3048 3043 3038 3035 3034 3033 3033 3032 3030 3029 3028 3029 3027 3027 3029 3030 3031 3031 3031 3031 3032 3034 3038 3040 3041 3042 3046 3048 3053 3057 3061 3065 3069 3073 3073 3077 3082 3082 3087 3087
3087 3082 3076 3069 3063 3057 3052 3046 3042 3037 3034 3033 3033 3032 3032 3030 3029 3027 3029 3030 3029 3029 3030 3032 3031 3033 3033 3034 3035 3037 3038 3039 3042 3046 3048 3051 3054 3060 3064 3065 3066 3070 3071 3075 3078 3079 3078
3084 3079 3073 3066 3061 3055 3049 3044 3040 3036 3032 3032 3031 3031 3030 3030 3030 3027 3029 3031 3031 3030 3030 3031 3033 3033 3034 3034 3035 3036 3037 3038 3039 3044 3048 3051 3052 3055 3059 3061 3064 3066 3068 3070 3071 3074 3074
3081 3075 3070 3064 3059 3053 3047 3043 3039 3035 3032 3030 3030 3029 3029 3029 3031 3029 3029 3032 3033 3032 3031 3032 3033 3034 3034 3035 3036 3036 3037 3038 3039 3043 3046 3049 3051 3054 3058 3061 3059 3059 3062 3064 3067 3069 3067
3078 3072 3067 3062 3058 3050 3045 3042 3039 3034 3030 3028 3028 3028 3028 3029 3029 3031 3030 3031 3034 3033 3032 3032 3033 3034 3035 3036 3036 3037 3038 3040 3041 3043 3045 3048 3048 3049 3049 3049 3050 3052 3054 3058 3062 3063 3061
3075 3070 3065 3060 3056 3048 3045 3042 3039 3034 3030 3029 3027 3026 3026 3028 3029 3029 3031 3030 3033 3033 3032 3032 3033 3035 3036 3036 3037 3037 3038 3039 3042 3043 3045 3047 3047 3048 3048 3048 3048 3049 3049 3051 3051 3054 3055
3072 3068 3064 3060 3053 3047 3044 3043 3038 3033 3030 3029 3028 3027 3026 3026 3027 3028 3029 3030 3031 3033 3033 3032 3033 3034 3035 3036 3037 3038 3039 3040 3041 3043 3043 3044 3045 3045 3046 3046 3047 3046 3046 3045 3047 3050 3048
3070 3066 3062 3058 3051 3046 3044 3042 3037 3033 3029 3027 3026 3027 3027 3028 3028 3030 3030 3030 3030 3030 3032 3032 3033 3033 3035 3036 3037 3038 3039 3040 3041 3042 3042 3043 3043 3044 3045 3045 3045 3044 3038 3038 3038 3039 3041
3067 3064 3061 3057 3049 3046 3042 3040 3036 3032 3028 3026 3025 3026 3026 3025 3026 3027 3028 3029 3030 3030 3030 3031 3033 3033 3035 3036 3037 3038 3039 3039 3040 3040 3041 3041 3043 3044 3044 3044 3045 3033 3032 3032 3032 3033 3035
3065 3063 3060 3055 3049 3045 3040 3037 3034 3030 3026 3025 3024 3024 3022 3021 3023 3024 3025 3027 3028 3029 3030 3030 3032 3033 3034 3035 3036 3037 3038 3039 3038 3038 3039 3040 3042 3043 3043 3041 3033 3029 3029 3029 3028 3027 3028
3063 3061 3058 3053 3048 3045 3038 3036 3034 3030 3026 3023 3021 3020 3020 3020 3021 3022 3024 3024 3025 3027 3029 3029 3031 3032 3033 3034 3036 3035 3036 3037 3038 3038 3037 3039 3040 3042 3041 3040 3033 3027 3026 3026 3025 3022 3022
3062 3060 3056 3052 3048 3043 3038 3034 3031 3028 3024 3022 3019 3017 3016 3016 3017 3018 3020 3023 3024 3025 3026 3028 3029 3030 3032 3032 3034 3035 3035 3036 3035 3034 3035 3036 3038 3038 3039 3037 3027 3025 3026 3025 3026 3026 3020
3061 3059 3055 3052 3047 3042 3037 3034 3030 3027 3024 3021 3018 3015 3013 3013 3013 3015 3015 3019 3021 3023 3024 3026 3028 3029 3030 3032 3033 3033 3033 3033 3032 3032 3031 3033 3033 3033 3034 3035 3029 3023 3024 3025 3024 3021 3019
3061 3059 3056 3052 3047 3042 3037 3034 3030 3026 3023 3020 3017 3014 3010 3008 3011 3012 3014 3015 3017 3020 3022 3022 3025 3025 3027 3030 3031 3031 3031 3030 3029 3029 3028 3030 3028 3028 3029 3025 3024 3023 3023 3022 3021 3021 3019